Regional Weather Roundup
Issued by NWS

Home | Current Version | Previous Version | Graphics & Text | Print | Product List | Glossary On
Versions: 1 2 3 4 5 6 7 8 9 10 11 12 13 14 15 16 17 18 19 20 21 22 23 24 25 26 27 28 29 30 31 32 33 34 35 36 37 38 39 40 41 42 43 44 45 46 47 48 49 50
399
ASUS43 KOAX 120702
RWRNE

WEATHER ROUNDUP FOR NEBRASKA
NATIONAL WEATHER SERVICE OMAHA NE
100 AM CST TUE DEC 12 2017

NOTES: SATELLITE DATA IS BEING USED TO AUGMENT CLOUD COVER ABOVE
       12000 FEET.
       "FAIR" INDICATES FEW OR NO CLOUDS BELOW 12,000 FEET WITH NO
       SIGNIFICANT WEATHER AND/OR OBSTRUCTIONS TO VISIBILITY.


NEZ001>004-019>022-054>056-120800-
NEBRASKA PANHANDLE

CITY           SKY/WX    TMP DP  RH WIND       PRES   REMARKS
SCOTTSBLUFF    CLOUDY    25  14  63 N7        30.40F WCI  17
ALLIANCE       CLOUDY    10   6  84 W8        30.38F WCI  -2
CHADRON        CLOUDY    17  13  84 SW7       30.39F WCI   8
GORDON         FAIR      21  19  89 W6        30.36F WCI  14
KIMBALL        CLOUDY    20   9  63 W7        30.40F WCI  11
SIDNEY         CLOUDY    22  12  65 W12       30.40F WCI  10
$$

NEZ057>060-069>072-079>082-120800-
SOUTHWEST NEBRASKA

CITY           SKY/WX    TMP DP  RH WIND       PRES   REMARKS
NORTH PLATTE   CLOUDY    19  16  88 W6        30.40F WCI  11
IMPERIAL       CLOUDY    24  15  68 NW7       30.43S WCI  16
LEXINGTON      MOCLDY    29  24  80 NW9       30.38S WCI  20
MCCOOK         CLOUDY    25  20  81 W13       30.42F WCI  14
OGALLALA       CLOUDY    18  14  86 W5        30.41F WCI  11
$$

NEZ005>010-023>029-035>040-094-120800-
NORTH CENTRAL NEBRASKA

CITY           SKY/WX    TMP DP  RH WIND       PRES   REMARKS
VALENTINE      CLOUDY    37  26  64 NW7       30.35F WCI  32
AINSWORTH      CLOUDY    35  30  80 NW8       30.35F WCI  29
BROKEN BOW     CLOUDY    38  27  64 NW13      30.36S WCI  30
O`NEILL        PTCLDY    20  20 100 W3        30.36F
ORD            CLOUDY    32  29  88 NW7       30.36S WCI  26
THEDFORD       CLEAR     28  24  83 W8        30.38S WCI  20
$$

NEZ041-046>049-061>064-073>077-083>087-120800-
SOUTH CENTRAL NEBRASKA

CITY           SKY/WX    TMP DP  RH WIND       PRES   REMARKS
GRAND ISLAND   CLEAR     30  26  85 NW10      30.38R WCI  21
AURORA         CLEAR     26  22  83 N7        30.37R WCI  19
HASTINGS       CLEAR     31  26  82 N10       30.37S WCI  22
HEBRON         CLEAR     28  22  80 NW5       30.39R WCI  22
HOLDREGE       CLOUDY    38  29  71 N9        30.37S WCI  31
KEARNEY        PTCLDY    34  29  82 N8        30.38S WCI  27
YORK           CLEAR     25  25 100 NW9       30.37R WCI  15
$$

NEZ011>018-030>034-042>045-120800-
NORTHEAST NEBRASKA

CITY           SKY/WX    TMP DP  RH WIND       PRES   REMARKS
NORFOLK        CLOUDY    21  18  88 NW8       30.36S WCI  11
ALBION         PTCLDY    26  22  84 N7        30.36F WCI  18
BLAIR          CLEAR     23  18  80 N9        30.33S WCI  13
COLUMBUS       CLEAR     25  20  81 NW15      30.38S WCI  13
FREMONT        CLEAR     22  17  80 NW9G16    30.37R WCI  11
TEKAMAH        CLEAR     18  12  77 NW8       30.36S WCI   8
WAYNE          CLEAR     17  15  90 NW6       30.36F WCI   8
$$

NEZ050>053-065>068-078-088>093-120800-
SOUTHEAST NEBRASKA

CITY           SKY/WX    TMP DP  RH WIND       PRES   REMARKS
LINCOLN        CLEAR     27  21  78 N14       30.37R WCI  16
OMAHA EPPLEY   CLEAR     24  13  62 N16       30.35R WCI  11
BEATRICE       CLEAR     30  25  81 N10       30.35S WCI  21
FALLS CITY     CLEAR     27  18  69 NW10      30.33R WCI  17
NEBRASKA CITY  CLEAR     25  19  75 N13       30.33R WCI  14
PLATTSMOUTH    CLEAR     25  17  72 NW12      30.33R WCI  14
$$

NEZ044-045-051>053-067-120800-
OMAHA AREA

CITY           SKY/WX    TMP DP  RH WIND       PRES   REMARKS
OMAHA EPPLEY   CLEAR     24  13  62 N16       30.35R WCI  11
BLAIR          CLEAR     23  18  80 N9        30.33S WCI  13
FREMONT        CLEAR     22  17  80 NW9G16    30.37R WCI  11
MILLARD        CLEAR     26  19  74 NW10      30.36R WCI  16
OFFUTT AFB     CLEAR     25  14  63 N13G23    30.34R WCI  14
PLATTSMOUTH    CLEAR     25  17  72 NW12      30.33R WCI  14
WAHOO          FAIR      23  16  73 N14       30.37R WCI  11
$$




USA.gov is the U.S. government's official web portal to all federal, state and local government web resources and services.